Tracking 30417 objects as of 16-May-2025
HD Live streaming from Space Station
objects crossing your sky now

THORAD AGENA D DEB

Track THORAD AGENA D DEB now!
10-day predictions


NORAD ID: 42514
Int'l Code: 1970-025RU
Perigee: 1,040.5 km
Apogee: 1,320.2 km
Inclination: 99.3 °
Period: 108.8 minutes
Semi major axis: 7551 km
RCS: Unknown
Launch date: April 8, 1970
Source: United States (US)
Launch site: AIR FORCE WESTERN TEST RANGE (AFWTR)

Note: This is SATELLITE DEBRIS
Your satellite tracking list
Your tracking list is empty




NASA's NSSDC Master Catalog

Two Line Element Set (TLE):
1 42514U 70025RU  25124.87716743  .00000535  00000-0  12451-2 0  9995
2 42514  99.3492 284.0779 0185174 208.9389 150.1363 13.23023555 25090
Source of the keplerian elements: AFSPC